Tracking 20040 objects as of 19-Nov-2019
Live streaming from Space Station
objects crossing your sky now

DELTA 1 R/B

Track DELTA 1 R/B now!
10-day predictions


NORAD ID: 6921
Int'l Code: 1973-086B
Perigee: 1,514.9 km
Apogee: 1,538.0 km
Inclination: 102.3 °
Period: 116.4 minutes
Semi major axis: 7897 km
RCS: 3.8464 m2 (large)
Launch date: November 6, 1973
Source: United States (US)
Launch site: AIR FORCE WESTERN TEST RANGE (AFWTR)

Note: This is a ROCKET BODY
aabbcc
Your satellite tracking list
Your tracking list is empty




NASA's NSSDC Master Catalog

Two Line Element Set (TLE):
1  6921U 73086B   19321.91710947 -.00000028 +00000-0 +13756-3 0  9992
2  6921 102.2648 293.2725 0014646 322.4967 037.5071 12.37000808093168
Source of the keplerian elements: AFSPC